Location: Poughquag
(41.6090°N, 73.6820°W)
Time: 02:26:37
(UTC-04:00)

Vanguard 1 - Pass Details

Date: 30 May 2020
Orbit: 650 x 3833 km, 34.2° (Epoch: 06 July)

Event Time Altitude Azimuth Distance (km) Brightness Sun altitude
Rises 07:45:55 0° 248° (WSW) 6,475 13.7 24.1°
Reaches altitude 10° 07:49:38 10° 246° (WSW) 5,789 13.5 24.8°
Maximum altitude 08:09:22 68° 169° (S) 3,943 13.6 28.4°
Drops below altitude 10° 08:32:10 10° 93° (E) 6,546 15.8 32.7°
Sets 08:36:42 0° 91° (E) 7,315 15.6 33.5°
